World > North America > United States > South Carolina

Hourly Coward, SC Regional Weather

Feedback E-mail the Weather

Latest News

Coward, SC Weather Maps

°F °C°F °C
Coward Weather Map
UTC Time: 5/20/2022, 04:41
Your Time:

Coward, SC Regional Weather

Expires:202205200500;;301801
ASUS42 KCAE 200410
RWRCAE
REGIONAL WEATHER ROUNDUP
NATIONAL WEATHER SERVICE COLUMBIA SC
1200 AM EDT FRI MAY 20 2022

NOTE: "FAIR" INDICATES FEW OR NO CLOUDS BELOW 12,000 FEET WITH NO
SIGNIFICANT WEATHER AND/OR OBSTRUCTIONS TO VISIBILITY.

NOT ALL STATIONS ARE QUALITY CONTROLLED BY THE NATIONAL 
WEATHER SERVICE. USE DATA WITH CAUTION...ESPECIALLY 
DEWPOINT OBSERVATIONS.


SCZ001>059-115-116-135>137-GAZ040-063>065-077-200500-
...UPSTATE SOUTH CAROLINA...
  
CITY           SKY/WX    TMP DP  RH WIND       PRES   REMARKS
ANDERSON       PTCLDY    76  66  71 S5        29.88S                  
LIBERTY        PTCLDY    73  65  76 SW6       29.88S                  
SPARTANBURG    PTCLDY    75  61  60 SW3       29.87S                  
CLEMSON        CLEAR     76  65  68 CALM      29.89R                  
GREENVILLE     PTCLDY    80  64  58 SW8       29.89S                  
GREENWOOD      PTCLDY    77  65  66 SW8       29.89F                  
GREER          PTCLDY    76  62  62 SW8       29.88S                  
ROCK HILL      MOCLDY    74  65  73 S6        29.87R                  
CHESTER        MOCLDY    77  63  61 S3        29.88S                  
LAURENS        PTCLDY    75  64  69 S5        29.88F                  


...CENTRAL SOUTH CAROLINA...
  
CITY           SKY/WX    TMP DP  RH WIND       PRES   REMARKS
COLUMBIA APT   MOCLDY    81  66  60 SW6       29.86S                  
COLUMBIA OWENS MOCLDY    82  65  56 CALM      29.87S                  
MCENTIRE ANGB  MOCLDY    79  65  62 CALM      29.86S                  
ORANGEBURG     PTCLDY    74  68  81 SW3       29.89R                  
SUMTER SHAW    MOCLDY    80  65  59 SW6       29.86R                  
NEWBERRY       MOCLDY    79  64  61 SW6       29.91S                  
AIKEN          FAIR      76  67  72 SW6       29.91S                  
BARNWELL       FAIR      75  68  78 CALM      29.89S                  
CAMDEN         FAIR      81  64  57 CALM      29.88R                  
LANCASTER      MOCLDY    79  64  61 SW8       29.87S                  
WINNSBORO      MOCLDY    79  64  61 SW6       29.88S                  


...EASTERN AND COASTAL SOUTH CAROLINA...
  
CITY           SKY/WX    TMP DP  RH WIND       PRES   REMARKS
MYRTLE BEACH   MOCLDY    76  71  85 S6        29.89R                  
N MYRTLE BCH   MOCLDY    76  70  82 SW14      29.88R                  
CONWAY         FAIR      77  68  73 S5        29.89R                  
MARION         FAIR      77  72  83 SW6       29.87S                  
HARTSVILLE     MOCLDY    77  63  61 CALM      29.87S                  
FLORENCE       MOCLDY    81  69  67 SW8       29.87R                  
DARLINGTON     MOCLDY    76  67  73 SW5       29.87R                  
CHARLESTON APT CLEAR     77  69  76 S9        29.90R                  
WALTERBORO     CLEAR     77  70  78 S5        29.90F                  
BEAUFORT       CLEAR     80  71  74 S6        29.90S                  
HILTON HEAD    CLEAR     79  73  83 VRB12G21  29.92F                  


...EASTERN GEORGIA...
  
CITY           SKY/WX    TMP DP  RH WIND       PRES   REMARKS
AUGUSTA BUSH F PTCLDY    69  68  96 CALM      29.88R                  
AUGUSTA DANIEL PTCLDY    82  66  58 VRB3      29.90R                  
THOMSON        MOCLDY    75  68  77 S5        29.90S                  
WASHINGTON     FAIR      77  67  71 SW5       29.89F                  
CLAXTON        FAIR      81  66  60 W3        29.92R                  
STATESBORO     CLEAR     73  67  81 S3        29.91S                  
SAVANNAH       CLEAR     77  70  79 S9        29.91S                  


...SOUTHERN NORTH CAROLINA...
  
CITY           SKY/WX    TMP DP  RH WIND       PRES   REMARKS
CHARLOTTE      MOCLDY    78  64  61 S7        29.86S                  
MONROE         MOCLDY    78  64  61 SW8       29.86R                  
WADESBORO      MOCLDY    76  64  67 CALM      29.85S                  
ROCKINGHAM     MOCLDY    80  64  58 SW5       29.86R                  
RUTHERFORDTON  MOCLDY    73  63  68 CALM      29.87S                  
ASHEVILLE      MOCLDY    71  60  68 S3        29.93F                  

$$
  

SKY/WX - Weather  TMP - Temperature  DP - Dew Point  RH - Humidity
WIND - Wind Direction/Speed PRES - Barometric Pressure VSB - Visibility
WCI - Wind Chill Index E13G22 Wind - East Wind 13 mph/Gusts of 22 mph

Trending Headlines

Coward Radar Loop



Coward Quick Facts


National Two Day Weather Forecast


E-mail the Coward Weather Forecast

Voice your opinion or tell us about page issues...